Погода в Юшкове

Россия / Смоленская область     55°00′27″N   34°19′17″E
В апреле 2022 года жителям России запретили посещать сайт meteo.paraplan.net по решению Генеральной прокуратуры. Аудитория сайта уменьшилась в 10 раз. Владельцы сайта не видят смысла в поддержке погодного сервера в таких условиях. Сайт будет закрыт в октябре.
темп.,
°C
ветер,
м/с
пор.,
м/с
влажн.,
%
обл.,
%
осадки,
мм/ч
давл.,
гПа
погр.,
м
4 октября, вт
вт400:00+5ю61297100 1.1 9961011
03:00+4ююв61397100 1.8 998968
06:00+5ю51196100 0.5 9991091
09:00+5ю51089100 0.8 10011177
12:00+4ю51196100 0.1 10041008
15:00+5ю51197100 1.4 1005992
18:00+4ю4897100 1.6 1007995
21:00+5ююз4797100 3.6 1007816
5 октября, ср
ср500:00+5ююз3697100 0.4 1008811
03:00+5зюз3596100 1.9 1009926
06:00+4зсз3891100 0.6 1010587
09:00+5з3796100 0.8 1012793
12:00+5зсз379298 0.3 1014802
15:00+8зсз478098 0.6 1016997
18:00+6з3892100 0.1 1017469
21:00+5зюз289798 0.1 1017241
6 октября, чт
чт600:00+6зюз2899100 0.5 1018373
03:00+7зюз2699100 1.0 1018337
06:00+7зюз2699100 0.1 1018227
09:00+8юз2798100 0.1 1018257
12:00+9юз279682 0.0 1018298
15:00+14юз378025 0.0 1017764
18:00+11юз39910 0.0 1017296
21:00+10юз4139491 0.0 1017405
7 октября, пт
пт700:00+10зюз4129541 0.0 1017370
03:00+11з5129460 0.0 1019748
06:00+9з4119662 0.0 1021504
09:00+9зсз51189100 0.0 1023646
12:00+11з597317 0.0 1024804
15:00+12з4872100 0.0 10251076
18:00+8зюз37860 0.0 1025177
21:00+7зюз39940 0.0 1026184
8 октября, сб
сб800:00+6зюз27954 0.0 1026137
03:00+6юз25975 0.0 1026106
06:00+5юз27977 0.0 1025135
09:00+8юз389022 0.0 1025261
12:00+12ююз487030 0.0 1023702
15:00+14ююз586449 0.0 1020970
18:00+10ююз41178100 0.0 1019432
21:00+10ююз51481100 0.0 1018653